Regional Weather Roundup
Issued by NWS Cleveland, OH

Home | Current Version | Previous Version | Graphics & Text | Print | Product List | Glossary On
Versions: 1 2 3 4 5 6 7 8 9 10 11 12 13 14 15 16 17 18 19 20 21 22 23 24 25 26 27 28 29 30 31 32 33 34 35 36 37 38 39 40 41 42 43 44 45 46 47 48 49 50
000
ASUS41 KCLE 061302
RWRCLE
OHIO REGIONAL WEATHER ROUNDUP
NATIONAL WEATHER SERVICE CLEVELAND, OH
800 AM EST FRI MAR 06 2015

NOTE: "FAIR" INDICATES FEW OR NO CLOUDS BELOW 12,000 FEET WITH NO
SIGNIFICANT WEATHER AND/OR OBSTRUCTIONS TO VISIBILITY.

OHZ001>008-015>018-024>027-034-035-043-044-061400-
   NORTHWEST OHIO

CITY           SKY/WX    TMP DP  RH WIND       PRES   REMARKS
DEFIANCE       PTCLDY     2  -2  83 SW5       30.51S WCI  -8
FINDLAY        MOCLDY     3   1  91 S6        30.50S FOG     WCI  -8
TOLEDO EXPRESS MOCLDY    -2  -5  87 CALM      30.49F
TOLEDO EXEC    MOCLDY     4  -1  80 SW6       30.52S WCI  -7
LIMA           PTCLDY     5   0  79 S6        30.49S HAZE    WCI  -6
$$

OHZ009>014-019>023-028>033-038-089-061400-
   NORTHEAST OHIO

CITY           SKY/WX    TMP DP  RH WIND       PRES   REMARKS
CLE-HOPKINS    MOSUNNY    5  -1  76 S7        30.52F WCI  -7
CLE-LAKEFRONT  MOSUNNY    9   2  73 S9        30.51F WCI  -4
CUY CO. ARPT   SUNNY      9   3  78 S9        30.49F WCI  -5
LORAIN-ELYRIA  PTSUNNY    2  -2  83 SW6       30.51S WCI  -9
ASHTABULA      CLOUDY    -2  -7  79 SE5       30.50F WCI -12
AKRON-CANTON   MOSUNNY    4  -1  80 S7        30.47F WCI  -8
WOOSTER        PTSUNNY   -3  -4  95 CALM      30.49F FOG
MANSFIELD      PTSUNNY    5   2  87 S7        30.46S WCI  -7
YOUNGSTOWN     PTSUNNY    3  -2  79 S6        30.49S WCI  -8
$$

OHZ042-051>053-060>062-070>072-077>081-061400-
  SOUTHWEST OHIO

CITY           SKY/WX    TMP DP  RH WIND       PRES   REMARKS
CINC-COVINGTON PTCLDY     4   1  88 CALM      30.54R
CINC-LUNKEN    PTCLDY     4   4 100 CALM      30.61R FOG
HAMILTON       PTCLDY     5   2  87 CALM      30.58R
DAYTON         PTCLDY    10   5  80 SW5       30.53R WCI   2
WRIGHT-PAT AFB MOSUNNY    8   3  80 CALM      30.54R
DAYTON GENERAL PTCLDY     6   3  87 S5        30.52R WCI  -3
WILMINGTON     MOSUNNY    6   1  80 CALM      30.52R
$$

OHZ036-037-039>041-045>050-054>059-063>069-073>076-082>088-061400-
  CENTRAL AND SOUTHEAST OHIO

CITY           SKY/WX    TMP DP  RH WIND       PRES   REMARKS
COLUMBUS       PTSUNNY    7   2  80 CALM      30.54R
OSU AIRPORT    MOSUNNY    8   4  83 S5        30.52S WCI   0
BOLTON FIELD   SUNNY      5   1  85 CALM      30.53S
RICKENBACK AFB NOT AVBL
NEWARK         PTSUNNY    0  -4  83 CALM      30.53R
MARION         MOSUNNY    1  -3  83 S7        30.51S FOG     WCI -12
LANCASTER      PTSUNNY    1  -2  87 CALM      30.54R FOG
ZANESVILLE     PTSUNNY   -4  -8  83 CALM      30.54S
NEW PHILLY     PTSUNNY    3  -2  79 SE7       30.54F WCI  -9
$$


USA.gov is the U.S. government's official web portal to all federal, state and local government web resources and services.